[[{"header":{"parameterUnit":"m.s-1","parameterCategory":1,"la1":30.2991,"la2":30.254,"lo1":-89.0895,"lo2":-89.0444,"dx":0.0017,"dy":0.0017,"nx":28,"ny":28,"refTime":"2022-11-03T21:00:00:Z","depth":0,"parameterNumber":2,"parameterNumberName":"U-component_of_WINDS"},"data":[0,0,0,0,0,0,0,0,0,0,0,0,0,0,0,0,0,0,0,0,0,0,0,0,0,0,0,0,0,0,0,0,0,0,0,0,0,0,0,0,0,0,0,0,0,0,0,0,0,0,0,0,0,0,0,0,0,0,-5.1566,-5.1567,0,-5.1645,-5.1646,-5.1647,-5.1589,-5.1587,-5.1584,-5.1582,-5.1662,-5.1666,-5.1671,0,0,0,0,0,0,0,0,0,0,0,0,0,-5.1366,-5.137,-5.1566,-5.1567,-5.1568,-5.1645,-5.1646,-5.1647,-5.159,-5.1587,-5.1584,-5.1581,-5.166,-5.1666,-5.1671,0,0,0,0,0,0,0,0,0,0,0,0,0,-5.145,-5.1371,-5.1566,-5.1549,-5.1548,-5.1645,-5.1646,-5.1647,-5.1591,-5.1587,-5.1583,-5.1579,-5.1659,-5.1665,-5.1672,-5.1789,0,0,-5.1692,-5.1695,0,0,0,0,0,0,0,0,-5.1445,-5.1457,-5.155,-5.155,-5.1549,-5.1603,-5.1605,-5.1695,-5.1592,-5.1574,-5.1582,-5.1578,-5.1645,-5.1653,-5.1676,-5.1793,-5.1796,-5.1693,-5.1697,-5.17,-5.1702,0,0,0,0,0,0,0,-5.1439,-5.1453,-5.1597,-5.1552,-5.1551,-5.1537,-5.1545,-5.1622,-5.163,-5.1575,-5.1572,-5.1582,-5.1644,-5.167,-5.1677,-5.1797,-5.1693,-5.1699,-5.1703,-5.1705,-5.2017,-5.2021,0,0,0,0,0,0,-5.1435,-5.1449,-5.1594,-5.1599,-5.1487,-5.1544,-5.1553,-5.159,-5.1629,-5.1631,-5.1585,-5.1579,-5.166,-5.167,-5.168,-5.182,-5.17,-5.1706,-5.171,-5.2013,-5.2018,-5.2022,0,0,0,0,0,0,-5.1431,-5.1449,-5.1591,-5.1523,-5.154,-5.1552,-5.1594,-5.1593,-5.1618,-5.1636,-5.1637,-5.1609,-5.1657,-5.1671,-5.1763,-5.1822,-5.1709,-5.1715,-5.2008,-5.2014,-5.202,-5.2101,0,0,0,0,0,0,-5.1426,-5.1448,-5.1491,-5.1525,-5.1544,-5.1672,-5.1598,-5.1598,-5.163,-5.1623,-5.1659,-5.1661,-5.1655,-5.1753,-5.177,-5.1829,-5.172,-5.2002,-5.2011,-5.2018,-5.2093,-5.211,-5.2124,0,0,0,0,0,-5.1419,-5.151,-5.1494,-5.1512,-5.1599,-5.1676,-5.1687,-5.1678,-5.1636,-5.168,-5.1692,-5.166,-5.1814,-5.1763,-5.1781,-5.1844,-5.1998,-5.2008,-5.2017,-5.2087,-5.2107,-5.2123,0,0,0,0,0,0,-5.1482,-5.1514,-5.1496,-5.1602,-5.1637,-5.1666,-5.1721,-5.17,-5.1747,-5.1738,-5.1726,-5.1735,-5.1831,-5.1847,-5.179,-5.1961,-5.1899,-5.1913,-5.1946,-5.1965,-5.198,-5.1972,-5.1726,0,0,0,0,0,-5.1509,-5.1568,-5.1593,-5.1684,-5.1703,-5.171,-5.1743,-5.1734,-5.1769,-5.1783,-5.1802,-5.1837,-5.1894,-5.1931,-5.1984,-5.2097,-5.2104,-5.215,-5.2165,-5.2177,-5.2188,-5.225,-5.227,-5.2054,-5.2054,-5.2053,0,0,-5.1563,-5.1589,-5.1626,-5.1697,-5.1723,-5.1785,-5.1722,-5.179,-5.1836,-5.1793,-5.1881,-5.1897,-5.1936,-5.204,-5.2087,-5.2056,-5.225,-5.2189,-5.2199,-5.2203,-5.2262,-5.2283,-5.2301,-5.206,-5.2059,-5.2058,0,0,-5.1694,-5.172,-5.1798,-5.1827,-5.1868,-5.1873,-5.1892,-5.1926,-5.1935,-5.2024,-5.1994,-5.205,-5.2147,-5.2176,-5.2204,-5.2352,-5.2324,-5.237,-5.2447,-5.2508,-5.2525,-5.254,-5.2592,-5.2611,-5.2381,-5.2382,-5.2382,0,-5.1756,-5.1848,-5.1841,-5.1912,-5.1944,-5.1912,-5.1992,-5.202,-5.2076,-5.2099,-5.2065,-5.2189,-5.2213,-5.2323,-5.236,-5.2384,-5.2405,-5.2363,-5.2524,-5.2539,-5.2553,-5.2602,-5.2622,-5.2387,-5.2386,-5.2386,-5.2385,0,-5.1923,-5.1988,-5.2046,-5.2103,-5.2143,-5.2218,-5.2223,-5.2264,-5.2254,-5.2263,-5.2355,-5.2384,-5.2442,-5.2469,-5.2458,-5.2579,-5.2559,-5.2525,-5.2462,-5.2579,-5.2625,-5.2643,-5.2394,-5.2392,-5.2391,-5.2389,0,0,-5.2089,-5.2145,-5.2167,-5.2193,-5.2238,-5.2288,-5.2364,-5.2423,-5.2458,-5.25,-5.2562,-5.2648,-5.2618,-5.265,-5.2643,-5.2697,-5.2812,-5.2657,-5.2657,-5.2683,-5.2947,-5.297,-5.2992,-5.2797,-5.28,-5.2803,-5.2943,0,-5.2221,-5.2352,-5.235,-5.2471,-5.2531,-5.2504,-5.257,-5.2605,-5.2617,-5.2671,-5.2684,-5.2744,-5.27,-5.272,-5.2772,-5.2787,-5.2865,-5.2778,-5.2853,-5.2856,-5.2841,-5.3016,-5.304,-5.317,-5.2961,-5.2964,-5.2967,0,-5.2391,-5.244,-5.2567,-5.2607,-5.2632,-5.2691,-5.2746,-5.2798,-5.2839,-5.2844,-5.2882,-5.2868,-5.2946,-5.2885,-5.2991,-5.2932,-5.2964,-5.2977,-5.2982,-5.2985,-5.2915,-5.3022,-5.3212,-5.323,-5.2995,-5.2993,-5.2991,0,-5.2498,-5.2596,-5.2685,-5.2709,-5.2758,-5.28,-5.2822,-5.286,-5.2896,-5.2945,-5.2969,-5.3026,-5.3057,-5.3102,-5.3105,-5.306,-5.3213,-5.3152,-5.3218,-5.3218,-5.3248,-5.3245,-5.3442,-5.3274,-5.3274,-5.3273,-5.3273,0,-5.2643,-5.2721,-5.2734,-5.2789,-5.2877,-5.2876,-5.2963,-5.2982,-5.3016,-5.3074,-5.3056,-5.3111,-5.3113,-5.3169,-5.3173,-5.326,-5.3275,-5.3281,-5.328,-5.3281,-5.328,-5.3298,-5.3288,-5.3279,-5.3277,-5.3276,-5.3275,0,-5.2775,-5.2787,-5.2882,-5.2923,-5.2935,-5.2998,-5.3032,-5.3084,-5.3097,-5.3171,-5.3188,-5.3207,-5.3274,-5.3283,-5.336,-5.3362,-5.3467,-5.3458,-5.3453,-5.345,-5.3516,-5.3509,-5.3729,-5.3758,-5.3574,-5.3575,-5.3577,0,-5.2865,-5.2925,-5.2973,-5.3011,-5.3036,-5.3098,-5.3136,-5.3139,-5.3179,-5.3233,-5.3279,-5.3344,-5.3395,-5.3503,-5.3524,-5.3584,-5.3574,-5.3648,-5.3583,-5.3582,-5.3573,-5.3568,-5.3574,-5.3659,-5.3661,-5.3663,-5.3664,0,-5.3023,-5.3027,-5.3083,-5.3142,-5.3188,-5.3235,-5.3278,-5.3311,-5.332,-5.3367,-5.3435,-5.3475,-5.3556,-5.362,-5.3681,-5.3704,-5.3686,-5.3686,-5.3704,-5.3703,-5.3696,-5.3699,-5.3484,-5.3679,-5.3677,-5.3676,-5.3676,-5.3675,-5.3135,-5.3188,-5.323,-5.3294,-5.3328,-5.337,-5.3422,-5.3443,-5.35,-5.3566,-5.3565,-5.364,-5.3683,-5.3762,-5.379,-5.3849,-5.3825,-5.3852,-5.3858,-5.3864,-5.3869,-5.3691,-5.3861,-5.386,-5.386,-5.386,-5.3859,0,-5.329,-5.3317,-5.3376,-5.3439,-5.349,-5.3472,-5.3521,-5.3564,-5.363,-5.3672,-5.3725,-5.3804,-5.3868,-5.3896,-5.3959,-5.4001,-5.3995,-5.4018,-5.4012,-5.4018,-5.3888,-5.3865,-5.4022,-5.4022,-5.4022,-5.4022,-5.4022,-5.4022,-5.3376,-5.3465,-5.3475,-5.3581,-5.3608,-5.3682,-5.3711,-5.3751,-5.3785,-5.3875,-5.3928,-5.3947,-5.3984,-5.405,-5.4109,-5.4115,-5.4138,-5.4164,-5.4167,-5.4044,-5.4027,-5.4011,-5.399,-5.417,-5.417,-5.4292,-5.4293,-5.4294]},{"header":{"parameterUnit":"m.s-1","parameterCategory":1,"la1":30.2991,"la2":30.254,"lo1":-89.0895,"lo2":-89.0444,"dx":0.0017,"dy":0.0017,"nx":28,"ny":28,"refTime":"2022-11-03T21:00:00:Z","depth":0,"parameterNumber":3,"parameterNumberName":"V-component_of_WINDS"},"data":[0,0,0,0,0,0,0,0,0,0,0,0,0,0,0,0,0,0,0,0,0,0,0,0,0,0,0,0,0,0,0,0,0,0,0,0,0,0,0,0,0,0,0,0,0,0,0,0,0,0,0,0,0,0,0,0,0,0,1.2023,1.2023,0,1.197,1.1969,1.1968,1.1951,1.1951,1.1951,1.1951,1.1894,1.1893,1.1891,0,0,0,0,0,0,0,0,0,0,0,0,0,1.2112,1.211,1.2023,1.2023,1.2022,1.197,1.1969,1.1968,1.1951,1.1951,1.1951,1.1951,1.1895,1.1893,1.1891,0,0,0,0,0,0,0,0,0,0,0,0,0,1.2067,1.211,1.2024,1.2007,1.2005,1.197,1.1969,1.1968,1.195,1.1951,1.1951,1.1952,1.1896,1.1893,1.1891,1.1867,0,0,1.1883,1.1882,0,0,0,0,0,0,0,0,1.207,1.2064,1.201,1.2008,1.2006,1.1967,1.1979,1.1934,1.195,1.1971,1.1951,1.1952,1.1918,1.1914,1.1903,1.1865,1.1862,1.1882,1.1881,1.188,1.1879,0,0,0,0,0,0,0,1.2073,1.2066,1.2002,1.2009,1.2007,1.2003,1.1997,1.1971,1.1943,1.1969,1.1968,1.1962,1.1917,1.1905,1.1901,1.1861,1.1882,1.188,1.1879,1.1878,1.1804,1.1804,0,0,0,0,0,0,1.2079,1.2069,1.2004,1.2,1.2039,1.2001,1.1994,1.1979,1.1944,1.1938,1.1962,1.1961,1.191,1.1904,1.1899,1.1871,1.188,1.1877,1.1876,1.1805,1.1804,1.1804,0,0,0,0,0,0,1.2081,1.2073,1.2006,1.2034,1.2025,1.1999,1.1982,1.1978,1.1966,1.1938,1.1933,1.1955,1.191,1.1903,1.1876,1.1869,1.1876,1.1874,1.1805,1.1805,1.1804,1.1814,0,0,0,0,0,0,1.2083,1.2074,1.2064,1.2034,1.2024,1.1983,1.1982,1.1977,1.1962,1.1961,1.193,1.1925,1.191,1.188,1.1874,1.1865,1.1872,1.1806,1.1805,1.1804,1.1814,1.1814,1.1813,0,0,0,0,0,1.2086,1.2068,1.2064,1.2056,1.2012,1.1983,1.1977,1.196,1.1961,1.1952,1.1934,1.1926,1.1871,1.1878,1.187,1.1861,1.1806,1.1805,1.1804,1.1814,1.1814,1.1813,0,0,0,0,0,0,1.2097,1.2064,1.2059,1.203,1.201,1.198,1.1967,1.196,1.1938,1.1938,1.1917,1.1911,1.1886,1.1871,1.1878,1.1838,1.1838,1.1836,1.1848,1.1848,1.1847,1.1851,1.187,0,0,0,0,0,1.2096,1.2076,1.2048,1.2026,1.2016,1.1994,1.198,1.197,1.1947,1.1938,1.1918,1.1897,1.1875,1.1861,1.1839,1.1812,1.1806,1.1803,1.1802,1.1802,1.18,1.1787,1.1786,1.1801,1.1801,1.1801,0,0,1.2093,1.2073,1.2061,1.2027,1.201,1.199,1.1986,1.1964,1.1949,1.1935,1.1908,1.1894,1.1868,1.1842,1.183,1.1829,1.1795,1.1801,1.1801,1.1799,1.1786,1.1785,1.1784,1.18,1.18,1.1801,0,0,1.2079,1.2061,1.2042,1.2025,1.2,1.1986,1.1981,1.1954,1.1943,1.1917,1.1907,1.1889,1.1851,1.1834,1.182,1.1803,1.1796,1.1797,1.1795,1.1782,1.1781,1.178,1.1775,1.1773,1.1795,1.1795,1.1795,0,1.2079,1.2048,1.2032,1.2012,1.1998,1.1986,1.1966,1.1951,1.1919,1.191,1.191,1.1865,1.1846,1.1817,1.1814,1.1803,1.1798,1.18,1.1783,1.1781,1.178,1.1775,1.1773,1.1796,1.1795,1.1795,1.1795,0,1.205,1.2029,1.2016,1.1988,1.1973,1.1953,1.1935,1.1921,1.1913,1.1899,1.1874,1.1852,1.1827,1.1819,1.181,1.1789,1.179,1.1787,1.1786,1.1779,1.1774,1.1772,1.1796,1.1796,1.1796,1.1796,0,0,1.2037,1.2003,1.1999,1.1987,1.196,1.1943,1.1924,1.19,1.189,1.187,1.1853,1.1823,1.1821,1.1806,1.1795,1.1784,1.1774,1.1782,1.1781,1.1782,1.1751,1.1754,1.1752,1.1769,1.1769,1.1768,1.1754,0,1.202,1.1985,1.1971,1.1943,1.1924,1.1914,1.1897,1.1879,1.1867,1.1849,1.1835,1.1815,1.1813,1.1804,1.1793,1.1777,1.1767,1.1778,1.1754,1.1753,1.176,1.1749,1.1751,1.1738,1.1752,1.1751,1.1751,0,1.1993,1.1975,1.1945,1.1922,1.1914,1.1899,1.1878,1.1861,1.1842,1.1833,1.1818,1.1809,1.1789,1.1791,1.1764,1.1772,1.1762,1.1753,1.1752,1.1748,1.1751,1.1745,1.1734,1.1732,1.1747,1.1748,1.1748,0,1.1988,1.1956,1.1934,1.1924,1.1897,1.1887,1.1876,1.1856,1.1844,1.1825,1.1817,1.1797,1.1785,1.177,1.1755,1.1758,1.173,1.1731,1.1723,1.1724,1.1717,1.1717,1.1703,1.1711,1.1711,1.1711,1.1711,0,1.197,1.1952,1.1932,1.1918,1.1899,1.1885,1.1866,1.1853,1.1837,1.1821,1.1811,1.1797,1.1779,1.1763,1.1752,1.1732,1.1727,1.172,1.1717,1.1721,1.1721,1.1713,1.1713,1.171,1.171,1.171,1.171,0,1.196,1.1946,1.1922,1.19,1.1894,1.188,1.1861,1.1848,1.1837,1.1818,1.1812,1.1794,1.1774,1.1759,1.1733,1.1726,1.1705,1.1702,1.1712,1.1711,1.1704,1.1705,1.1684,1.1681,1.169,1.169,1.169,0,1.1948,1.1935,1.1912,1.1902,1.1891,1.1873,1.1862,1.1848,1.1836,1.1814,1.1804,1.1785,1.1768,1.1738,1.1722,1.1703,1.1699,1.1693,1.1696,1.1701,1.17,1.1701,1.17,1.1693,1.1693,1.1692,1.1692,0,1.193,1.1925,1.1908,1.189,1.1876,1.1861,1.1845,1.1837,1.1821,1.1808,1.1789,1.1776,1.1752,1.1732,1.1713,1.1701,1.1694,1.1692,1.1689,1.1693,1.1699,1.1696,1.1711,1.1692,1.1692,1.1692,1.1692,1.1692,1.1919,1.1908,1.1891,1.1873,1.1861,1.1847,1.1835,1.1823,1.1806,1.1786,1.1779,1.176,1.1743,1.1715,1.1704,1.1689,1.1688,1.1684,1.1683,1.1682,1.1683,1.1702,1.1685,1.1685,1.1685,1.1685,1.1685,0,1.1901,1.1891,1.1875,1.1854,1.1841,1.1838,1.1821,1.181,1.1793,1.1778,1.1763,1.1742,1.1725,1.1709,1.1691,1.1682,1.1679,1.1678,1.1678,1.1676,1.1684,1.1689,1.1681,1.1681,1.1681,1.1681,1.1681,1.1681,1.189,1.1871,1.1864,1.1839,1.1828,1.181,1.1801,1.1789,1.1777,1.1755,1.174,1.1731,1.1716,1.1697,1.1681,1.1677,1.1671,1.1671,1.1666,1.1674,1.1675,1.1675,1.1679,1.167,1.167,1.1659,1.1658,1.1658]}]]